Point Hope, AK

12:08 AM AKDT on May 26, 2017 (GMT -0800)
Point Hope

Weather History for PAPO - May, 2013

Change the Weather History Date:

Saturday, May 11, 2013

  Actual Average Record
Temperature  
Mean Temperature 26 °F -  
Max Temperature 33 °F 29 °F 57 °F (2016)
Min Temperature 17 °F 21 °F 3 °F (2011)
Degree Days  
Heating Degree Days 39    
Moisture  
Dew Point 27 °F    
Average Humidity 88    
Maximum Humidity 100    
Minimum Humidity 74    
Precipitation  
Precipitation 0.03 in - - ()
Sea Level Pressure  
Sea Level Pressure 29.95 in    
Wind  
Wind Speed 12 mph (SW)    
Max Wind Speed 28 mph    
Max Gust Speed 29 mph    
Visibility 4 miles    
Events      
Averages and records for this station are not official NWS values.
T = Trace of Precipitation, MM = Missing Value Source: NWS Daily Summary

Daily Weather History Graph

Daily Weather History Graph

Search for Another Location

Airport or City:

Trip Planner

Search our weather history database for the weather conditions in past years. The results will help you decide how hot, cold, wet, or windy it might be!

Date:

Astronomy

May. 11, 2013 Rise Set
Actual Time 5:06 AM AKDT 1:05 AM AKDT
Civil Twilight Sun does not set Sun does not set
Nautical Twilight Sun does not set Sun does not set
Astronomical Twilight Sun does not set Sun does not set
Moon 6:00 AM AKDT (5/11) 2:22 AM AKDT (5/11)
Length of Visible Light 24h 00m
Length of Day
19h 59m
Waxing Crescent, 3% of the Moon is Illuminated
May 11
Waxing Crescent
May 17
First Quarter
May 24
Full
May 31
Last Quarter
Jun 8
New

Hourly Weather History & Observations

Time (AKDT) Temp. Windchill Dew Point Humidity Pressure Visibility Wind Dir Wind Speed Gust Speed Precip Events Conditions
12:16 AM 33.8 °F 25.8 °F 30.2 °F 87% 30.05 in 7.0 mi SSW 10.4 mph - N/A   Overcast
12:36 AM 33.8 °F 25.8 °F 30.2 °F 87% 30.05 in 2.5 mi South 10.4 mph - N/A   Overcast
12:56 AM 33.8 °F 25.3 °F 30.2 °F 87% 30.05 in 4.0 mi SSW 11.5 mph - N/A   Overcast
1:16 AM 33.8 °F 25.8 °F 30.2 °F 87% 30.06 in 5.0 mi SSW 10.4 mph - N/A   Overcast
1:36 AM 33.8 °F 25.3 °F 30.2 °F 87% 30.05 in 7.0 mi South 11.5 mph - N/A   Overcast
2:16 AM 33.8 °F 26.4 °F 30.2 °F 87% 30.06 in 7.0 mi SSW 9.2 mph - N/A   Overcast
2:36 AM 33.8 °F 25.8 °F 30.2 °F 87% 30.05 in 4.0 mi SSW 10.4 mph - N/A   Overcast
2:56 AM 32.0 °F 25.6 °F 30.2 °F 93% 30.05 in 3.0 mi SW 6.9 mph - N/A   Overcast
3:16 AM 32.0 °F 24.8 °F 30.2 °F 93% 30.05 in 1.5 mi SSW 8.1 mph - N/A   Overcast
3:36 AM 32.0 °F 24.2 °F 30.2 °F 93% 30.05 in 1.0 mi SSW 9.2 mph - N/A   Overcast
3:56 AM 32.0 °F 24.2 °F 30.2 °F 93% 30.04 in 0.8 mi South 9.2 mph - N/A   Overcast
4:16 AM 32.0 °F 25.6 °F 30.2 °F 93% 30.04 in 0.8 mi SSW 6.9 mph - N/A   Overcast
4:36 AM 32.0 °F 24.8 °F 30.2 °F 93% 30.04 in 0.5 mi SSW 8.1 mph - N/A   Overcast
4:56 AM 32.0 °F 24.8 °F 30.2 °F 93% 30.04 in 0.5 mi South 8.1 mph - N/A   Overcast
5:16 AM 32.0 °F 25.6 °F 30.2 °F 93% 30.03 in 0.2 mi South 6.9 mph - N/A   Overcast
5:36 AM 32.0 °F 24.2 °F 30.2 °F 93% 30.03 in 0.2 mi South 9.2 mph - N/A   Overcast
5:56 AM 32.0 °F 24.2 °F 30.2 °F 93% 30.03 in 0.2 mi South 9.2 mph - N/A   Overcast
6:16 AM 32.0 °F 23.6 °F 30.2 °F 93% 30.03 in 0.2 mi South 10.4 mph - N/A   Overcast
6:36 AM 32.0 °F 24.2 °F 30.2 °F 93% 30.02 in 0.2 mi South 9.2 mph - N/A   Overcast
6:56 AM 32.0 °F 22.1 °F 30.2 °F 93% 30.01 in 0.2 mi SSE 13.8 mph - N/A   Overcast
7:16 AM 32.0 °F 23.0 °F 30.2 °F 93% 30.01 in 0.2 mi South 11.5 mph - N/A   Overcast
7:36 AM 30.2 °F 20.8 °F 30.2 °F 100% 30.02 in 0.2 mi SW 11.5 mph - N/A   Overcast
7:56 AM 30.2 °F 21.3 °F 30.2 °F 100% 30.02 in 0.5 mi SW 10.4 mph - N/A   Overcast
8:16 AM 30.2 °F 21.3 °F 28.4 °F 93% 30.01 in 0.8 mi SSW 10.4 mph - N/A   Overcast
8:36 AM 30.2 °F 21.3 °F 28.4 °F 93% 30.00 in 3.0 mi South 10.4 mph - N/A   Overcast
8:56 AM 32.0 °F 22.5 °F 30.2 °F 93% 29.99 in 10.0 mi SSE 12.7 mph - N/A   Overcast
9:36 AM 32.0 °F 22.5 °F 30.2 °F 93% 29.99 in 5.0 mi South 12.7 mph - N/A   Overcast
9:56 AM 32.0 °F 22.5 °F 28.4 °F 87% 29.98 in 6.0 mi South 12.7 mph - N/A   Overcast
10:16 AM 32.0 °F 22.5 °F 30.2 °F 93% 29.97 in 10.0 mi South 12.7 mph - N/A   Overcast
10:36 AM 32.0 °F 22.5 °F 30.2 °F 93% 29.96 in 10.0 mi South 12.7 mph - N/A   Overcast
11:16 AM 32.0 °F 23.6 °F 30.2 °F 93% 29.96 in 10.0 mi SSW 10.4 mph - N/A   Overcast
11:56 AM 33.8 °F 25.3 °F 30.2 °F 87% 29.95 in 10.0 mi SSW 11.5 mph - N/A   Overcast
12:16 PM 33.8 °F 25.8 °F 30.2 °F 87% 29.95 in 10.0 mi SSW 10.4 mph - N/A   Overcast
12:36 PM 33.8 °F 25.3 °F 30.2 °F 87% 29.95 in 10.0 mi SW 11.5 mph - N/A   Mostly Cloudy
12:56 PM 33.8 °F 24.8 °F 30.2 °F 87% 29.94 in 10.0 mi SW 12.7 mph - N/A   Overcast
1:36 PM 33.8 °F 25.8 °F 30.2 °F 87% 29.94 in 10.0 mi WSW 10.4 mph - N/A   Overcast
1:56 PM 33.8 °F 25.8 °F 30.2 °F 87% 29.93 in 10.0 mi SW 10.4 mph - N/A   Overcast
2:16 PM 33.8 °F 26.4 °F 30.2 °F 87% 29.93 in 10.0 mi SW 9.2 mph - N/A   Overcast
2:36 PM 33.8 °F 26.4 °F 30.2 °F 87% 29.92 in 7.0 mi SW 9.2 mph - N/A   Overcast
2:56 PM 33.8 °F 26.4 °F 30.2 °F 87% 29.92 in 3.0 mi SW 9.2 mph - N/A   Overcast
3:16 PM 33.8 °F 26.4 °F 30.2 °F 87% 29.91 in 5.0 mi SW 9.2 mph - N/A   Overcast
3:36 PM 33.8 °F 26.4 °F 30.2 °F 87% 29.90 in 2.5 mi SW 9.2 mph - N/A   Overcast
3:56 PM 33.8 °F 27.0 °F 30.2 °F 87% 29.90 in 1.2 mi SW 8.1 mph - N/A   Overcast
4:16 PM 33.8 °F 26.4 °F 30.2 °F 87% 29.89 in 0.8 mi SW 9.2 mph - 0.01 in   Overcast
4:36 PM 33.8 °F 27.0 °F 30.2 °F 87% 29.88 in 1.0 mi SW 8.1 mph - 0.01 in   Overcast
4:56 PM 33.8 °F 27.0 °F 30.2 °F 87% 29.88 in 0.8 mi WSW 8.1 mph - 0.02 in   Overcast
5:16 PM 33.8 °F 27.7 °F 30.2 °F 87% 29.87 in 1.0 mi SW 6.9 mph - N/A   Overcast
5:36 PM 33.8 °F 27.7 °F 30.2 °F 87% 29.87 in 0.5 mi WSW 6.9 mph - 0.01 in   Overcast
6:16 PM 30.2 °F 18.9 °F 26.6 °F 86% 29.86 in 0.8 mi North 16.1 mph - N/A   Overcast
6:36 PM 28.4 °F 17.5 °F 26.6 °F 93% 29.86 in 1.0 mi North 13.8 mph - N/A   Overcast
6:56 PM 28.4 °F 17.0 °F 24.8 °F 86% 29.86 in 0.5 mi North 15.0 mph - N/A   Overcast
7:16 PM 26.6 °F 13.4 °F 24.8 °F 93% 29.86 in 0.8 mi North 18.4 mph - N/A   Overcast
7:36 PM 26.6 °F 13.4 °F 23.0 °F 86% 29.85 in 1.2 mi North 18.4 mph - N/A   Overcast
7:56 PM 26.6 °F 12.7 °F 23.0 °F 86% 29.86 in 1.5 mi North 20.7 mph 24.2 mph N/A   Overcast
8:16 PM 26.6 °F 12.7 °F 21.2 °F 80% 29.85 in 1.8 mi North 20.7 mph - N/A   Overcast
8:36 PM 26.6 °F 12.7 °F 21.2 °F 80% 29.85 in 1.0 mi North 20.7 mph - N/A   Overcast
8:56 PM 24.8 °F 9.3 °F 21.2 °F 86% 29.85 in 3.0 mi North 24.2 mph - N/A   Mostly Cloudy
9:16 PM 26.6 °F 11.4 °F 19.4 °F 74% 29.85 in 3.0 mi North 25.3 mph - N/A   Mostly Cloudy
9:36 PM 24.8 °F 9.6 °F 19.4 °F 80% 29.86 in 5.0 mi North 23.0 mph - N/A   Overcast
9:56 PM 24.8 °F 9.6 °F 19.4 °F 80% 29.86 in 4.0 mi North 23.0 mph 28.8 mph N/A   Overcast
10:16 PM 23.0 °F 8.0 °F 19.4 °F 86% 29.86 in 5.0 mi North 20.7 mph - N/A   Overcast
10:36 PM 23.0 °F 7.6 °F 17.6 °F 80% 29.87 in 5.0 mi North 21.9 mph - N/A   Mostly Cloudy
10:56 PM 21.2 °F 4.5 °F 17.6 °F 86% 29.87 in 5.0 mi North 24.2 mph 27.6 mph N/A   Overcast
11:16 PM 21.2 °F 3.5 °F 15.8 °F 80% 29.88 in 4.0 mi North 27.6 mph - N/A   Overcast
11:36 PM 19.4 °F 2.1 °F 14.0 °F 80% 29.89 in 5.0 mi North 24.2 mph - N/A   Overcast
11:56 PM 17.6 °F 0.5 °F 12.2 °F 79% 29.90 in 4.0 mi North 21.9 mph - N/A   Scattered Clouds